This is the latest recevied weather packets stored in our database for station/object OH6GKW. If no packets are shown the sender has not sent any weather packets the latest 1 day(s).
| Time | Temp. | Humidity | Pressure | Rain* | Wind** | Luminosity | Snow |
|---|---|---|---|---|---|---|---|
| 1778084636 | 7.78° C | 57% | 1009.5 hPa | 0 mm | - | 234 W/m² | - |
| 1778082214 | 7.78° C | 58% | 1009.3 hPa | 0 mm | - | 310 W/m² | - |
| 1778081925 | 7.78° C | 58% | 1009.3 hPa | 0 mm | - | 320 W/m² | - |
| 1778081624 | 7.78° C | 57% | 1009.3 hPa | 0 mm | - | 331 W/m² | - |
| 1778081022 | 7.78° C | 58% | 1009.3 hPa | 0 mm | - | 350 W/m² | - |
| 1778079219 | 7.78° C | 58% | 1009 hPa | 0 mm | - | 408 W/m² | - |
| 1778078018 | 7.78° C | 57% | 1009 hPa | 0 mm | - | 443 W/m² | - |
| 1778077425 | 7.78° C | 57% | 1009 hPa | 0 mm | - | 461 W/m² | - |
| 1778076220 | 7.78° C | 58% | 1009 hPa | 0 mm | - | 500 W/m² | - |
| 1778074719 | 7.22° C | 56% | 1008.8 hPa | 0 mm | - | 537 W/m² | - |
| 1778074124 | 7.22° C | 55% | 1008.7 hPa | 0 mm | - | 551 W/m² | - |
| 1778073816 | 7.78° C | 56% | 1008.7 hPa | 0 mm | - | 558 W/m² | - |
| 1778072921 | 7.22° C | 57% | 1008.5 hPa | 0 mm | - | 581 W/m² | - |
| 1778072033 | 7.22° C | 59% | 1008.5 hPa | 0 mm | - | 593 W/m² | - |
| 1778071422 | 7.22° C | 60% | 1008.5 hPa | 0 mm | - | 413 W/m² | - |
| 1778070811 | 6.67° C | 62% | 1008.5 hPa | 0 mm | - | 674 W/m² | - |
| 1778068710 | 6.11° C | 63% | 1008.1 hPa | 0 mm | - | 500 W/m² | - |
| 1778068126 | 5.56° C | 65% | 1008.1 hPa | 0 mm | - | 491 W/m² | - |
| 1778067819 | 5.56° C | 65% | 1008 hPa | 0 mm | - | 457 W/m² | - |
| 1778066924 | 5.56° C | 66% | 1007.9 hPa | 0 mm | - | 347 W/m² | - |
| 1778066312 | 5° C | 66% | 1007.9 hPa | 0 mm | - | 318 W/m² | - |
| 1778065731 | 5° C | 66% | 1007.7 hPa | 0 mm | - | 303 W/m² | - |
| 1778064524 | 5° C | 68% | 1007.5 hPa | 0 mm | - | 306 W/m² | - |
| 1778064217 | 5° C | 69% | 1007.4 hPa | 0 mm | - | 285 W/m² | - |
| 1778063629 | 5° C | 68% | 1007.4 hPa | 0 mm | - | 303 W/m² | - |
* Rain since midnight (hover to see other rain measurements)
** Current wind speed in m/s (hover to see current wind gust speed)